Location: Fall River State Park
(37.6544°N, 96.0972°W)
Time: 05:03:15
(UTC-06:00)

OTV 5 (USA 277) - Visible Passes

Search period start: 19 November 2018 00:00
Search period end: 29 November 2018 00:00
Orbit: 339 x 348 km, 54.5° (Epoch: 14 November)

Date Brightness Start Highest point End Pass type
(mag) Time Alt. Az. Time Alt. Az. Time Alt. Az.
23 Nov ? 06:18:57 10° S 06:21:06 19° SE 06:23:14 10° E visible
24 Nov ? 06:41:35 10° SW 06:44:26 82° SE 06:47:19 10° NE visible
25 Nov ? 05:31:11 10° S 05:33:16 18° SE 05:35:21 10° E visible
26 Nov ? 05:54:51 21° SW 05:56:35 76° SE 05:59:27 10° NE visible
27 Nov ? 06:18:56 20° WNW 06:20:07 27° NW 06:22:39 10° NNE visible
28 Nov ? 05:11:07 13° NE 05:11:07 13° NE 05:11:33 10° NE visible
28 Nov ? 06:42:54 10° NW 06:43:54 11° NNW 06:44:53 10° N visible
